Regional Weather Roundup
Issued by NWS Boston, MA

Home | Current Version | Previous Version | Text Only | Print | Product List | Glossary On
Versions: 1 2 3 4 5 6 7 8 9 10 11 12 13 14 15 16 17 18 19 20 21 22 23 24 25 26 27
000
ASUS41 KBOX 230210
RWRBOX

REGIONAL WEATHER ROUNDUP
NATIONAL WEATHER SERVICE TAUNTON MA
1000 PM EDT TUE AUG 22 2017

NOTE:  "FAIR" INDICATES FEW OR NO CLOUDS BELOW 12,000 FEET WITH NO
SIGNIFICANT WEATHER AND/OR OBSTRUCTIONS TO VISIBILITY.

MAZALL-230300-
EASTERN MASSACHUSETTS

CITY           SKY/WX    TMP DP  RH WIND       PRES   REMARKS
BOSTON         CLOUDY    76  71  85 S16       29.72F
BEVERLY        CLOUDY    78  72  81 S12       29.70F
LAWRENCE       CLOUDY    82  72  71 S13G20    29.71F
BEDFORD        CLOUDY    78  70  76 SW17      29.70F
BLUE HILL        N/A     73  70  90 S17G23    29.75F
NORWOOD        PTCLDY    77  72  84 S10       29.73F
MARSHFIELD     PTCLDY    77  72  83 SW16G25   29.75F
PLYMOUTH       MOCLDY    75  69  81 S14G23    29.78F
TAUNTON        CLOUDY    75  70  84 SW14G23   29.77F
NEW BEDFORD    CLOUDY    74  71  91 SW17G30   29.79F
$$

MAZALL-230300-
CAPE COD AND THE ISLANDS

CITY           SKY/WX    TMP DP  RH WIND       PRES   REMARKS
FALMOUTH       CLEAR     75  70  83 S18G25    29.82F
HYANNIS        CLOUDY    75  73  93 S15G24    29.81F
CHATHAM        CLOUDY    74  74 100 SW13G24   29.83F
PROVINCETOWN   CLEAR     73  69  87 SW15      29.79F
NANTUCKET        N/A     70  70 100 S18       29.85F FOG
MARTHAS VNYRD  CLOUDY    74  72  93 S18G28    29.82F
$$

MAZALL-230300-
CENTRAL AND WESTERN MASSACHUSETTS

CITY           SKY/WX    TMP DP  RH WIND       PRES   REMARKS
WORCESTER      MOCLDY    75  70  84 SW15G25   29.74F
FITCHBURG      CLOUDY    81  72  74 S14       29.71F
ORANGE         CLOUDY    78  74  87 S14G23    29.70F
SPRINGFIELD    CLOUDY    79  72  79 S15G24    29.69F
WESTFIELD      CLOUDY    79  74  84 S15G21    29.70F
NORTH ADAMS    LGT RAIN  68  67  96 VRB3      29.75R
PITTSFIELD     HVY RAIN  70  68  93 W22G32    29.76R VSB 1/2
$$

RIZALL-230300-
RHODE ISLAND

CITY           SKY/WX    TMP DP  RH WIND       PRES   REMARKS
PROVIDENCE     MOCLDY    76  72  87 SW15      29.78F
NEWPORT        CLOUDY    73  73 100 S10G21    29.80F
BLOCK ISLAND   CLOUDY    73  71  93 SW18G25   29.80F
WESTERLY       CLOUDY    75  72  90 SW9G20    29.80F
$$

CTZALL-230300-
CONNECTICUT

CITY           SKY/WX    TMP DP  RH WIND       PRES   REMARKS
BRADLEY INTL   CLOUDY    80  73  79 S14       29.72F
HARTFORD       PTCLDY    80  74  81 S13G21    29.72F
BRIDGEPORT     PTCLDY    78  72  81 S17       29.76S
DANBURY        CLOUDY    81  73  76 S15G21    29.77S
GROTON         CLOUDY    74  71  91 SW12      29.78F
NEW HAVEN      CLEAR     78  72  81 S10G22    29.77S
CHESTER        FAIR      75  73  94 S13G18    29.78F
MERIDEN        CLEAR     77  72  84 S12       29.75F
WILLIMANTIC    PTCLDY    77  73  87 SW10      29.76F
OXFORD         PTCLDY    76  73  91 S8G17     29.79S
$$

MEZ002-015-021-024-NHZ003-005-008-011-012-014-VTZ005-008-230300-
NORTHERN NEW ENGLAND

CITY           SKY/WX    TMP DP  RH WIND       PRES   REMARKS
PORTLAND ME    CLOUDY    72  68  87 S13       29.67F
BANGOR ME      CLOUDY    71  68  90 S16G23    29.67F FOG
CONCORD NH     CLOUDY    80  71  74 S8        29.67F
MANCHESTER NH  CLOUDY    81  70  69 S15G22    29.66F
NASHUA NH      CLOUDY    80  74  81 VRB6      29.68F
PORTSMOUTH NH  CLOUDY    80  71  73 S8G16     29.66F
JAFFREY NH     PTCLDY    78  73  84 S12G22    29.73F
KEENE NH         N/A    N/A N/A N/A MISG        N/A
BURLINGTON VT  LGT RAIN  71  68  90 S9        29.63F
MT. WASHINGTON LGT RAIN  55  55 100 SW67G76     N/A  VSB 1/8
$$

NYZ052-076-230300-
EASTERN NEW YORK

CITY           SKY/WX    TMP DP  RH WIND       PRES   REMARKS
ALBANY         LGT RAIN  71  66  84 SW8       29.71F
NEW YORK CITY  MOCLDY    84  73  69 SW14G26   29.75F HX  90
$$

ANZALL-230300-
MARINE OBSERVATIONS

STATION/POSITION TIME  TEMP    WIND        PRES    VSBY  WAVE
                       AIR SEA DIR/SP/G                  HT/PER
                 (UTC) (F)     (DEG/KT/KT) (MB)    (MI)  (FT/S)
BOSTON BUOY      0150   72 66  180/ 17/ 21 1006.4F         2/ 4
BUZZARDS BAY     0100   72     200/ 26/ 29 1009.7F
NANTUCKET SOUND  0050   73 72  200/ 21/ 25 1010.3          2/ 4
MASS BAY-STELLWA 0104   72 67  200/ 16/ 17 1006.9F         3/ 5
ISLE OF SHOALS   0100   73     190/ 30/ 32 1005.7F
S OF BLOCK IS    NOT AVBL
$$

......................KEY.........................
  SKY/WX - SKY CONDITION/PRESENT WEATHER
  TMP    - TEMPERATURE IN FAHRENHEIT
  DWPT   - DEWPOINT IN FAHRENHEIT
  RH     - RELATIVE HUMIDITY IN PERCENT
  WIND   - DIRECTION AND SPEED IN MPH
  PRES   - MEAN SEA LEVEL PRESSURE IN INCHES OF HG
  WCI    - WIND CHILL INDEX
  VSB    - VISIBILITY IN MILES
  HX     - HEAT INDEX
  TC     - TEMPERATURE IN CELSIUS
  VRB    - VARIABLE WIND DIRECTION
  N/A    - NOT AVAILABLE




USA.gov is the U.S. government's official web portal to all federal, state and local government web resources and services.